Location: Freistadt
(48.5112°N, 14.5013°E)
Time: 10:04:38
(UTC+02:00)

NOAA 16 DEB - Pass Details

Date: 31 May 2024
Orbit: 738 x 810 km, 99.0° (Epoch: 16 June)

Event Time Altitude Azimuth Distance (km) Brightness Sun altitude
Rises 04:16:26 0° 164° (SSE) 3,317 ? -7.0°
Reaches altitude 10° 04:18:46 10° 165° (SSE) 2,386 ? -6.7°
Maximum altitude 04:24:04 86° 254° (WSW) 810 ? -6.1°
Drops below altitude 10° 04:29:20 10° 344° (NNW) 2,370 ? -5.4°
Sets 04:31:39 0° 345° (NNW) 3,293 ? -5.1°
